Regional Weather Roundup
Issued by NWS

Home | Current Version | Previous Version | Graphics & Text | Print | Product List | Glossary On
Versions: 1 2 3 4 5 6 7 8 9 10 11 12 13 14 15 16 17 18 19 20 21 22 23 24 25 26 27 28 29 30 31 32 33 34 35 36 37 38 39 40 41 42 43 44 45 46 47 48 49 50
020
ASUS43 KOAX 261210
RWRNE

WEATHER ROUNDUP FOR NEBRASKA
NATIONAL WEATHER SERVICE OMAHA NE
700 AM CDT MON SEP 26 2016

NOTES: SATELLITE DATA IS BEING USED TO AUGMENT CLOUD COVER ABOVE
       12000 FEET.
       "FAIR" INDICATES FEW OR NO CLOUDS BELOW 12,000 FEET WITH NO
       SIGNIFICANT WEATHER AND/OR OBSTRUCTIONS TO VISIBILITY.

  * THESE STATIONS DO NOT REPORT WEATHER SUCH AS RAIN...SNOW OR FOG.

NEZ001>004-019>022-054>056-261300-
NEBRASKA PANHANDLE

CITY           SKY/WX    TMP DP  RH WIND       PRES   REMARKS
SCOTTSBLUFF    CLEAR     38  34  85 N3        30.35F
6HR MIN TEMP:  37; 6HR MAX TEMP:  43;

ALLIANCE       CLOUDY    33  30  88 SW5       30.33F WCI  29
6HR MIN TEMP:  30; 6HR MAX TEMP:  35;

CHADRON        CLEAR     41  35  79 SW3       30.31F
6HR MIN TEMP:  38; 6HR MAX TEMP:  43;

KIMBALL        CLEAR     38  35  88 W8        30.38S WCI  32
SIDNEY         CLEAR     39  34  82 W8        30.37F WCI  33
6HR MIN TEMP:  35; 6HR MAX TEMP:  39; 6HR PCP: TRACE;

$$

NEZ057>060-069>072-079>082-261300-
SOUTHWEST NEBRASKA

CITY           SKY/WX    TMP DP  RH WIND       PRES   REMARKS
NORTH PLATTE   CLEAR     36  31  82 NW3       30.35S
6HR MIN TEMP:  35; 6HR MAX TEMP:  40;

IMPERIAL       CLOUDY    38  33  82 CALM      30.37S
6HR MIN TEMP:  37; 6HR MAX TEMP:  47;

LEXINGTON      CLEAR     36  32  84 NW3       30.34S
MCCOOK         CLEAR     37  33  85 W8        30.36S WCI  31
6HR MIN TEMP:  35; 6HR MAX TEMP:  44;

OGALLALA       CLEAR     35  33  93 W5        30.36S WCI  31
$$

NEZ005>010-023>029-035>040-094-261300-
NORTH CENTRAL NEBRASKA

CITY           SKY/WX    TMP DP  RH WIND       PRES   REMARKS
VALENTINE      CLEAR     37  31  78 SW7       30.29F WCI  32
6HR MIN TEMP:  35; 6HR MAX TEMP:  40;

AINSWORTH      CLEAR     41  35  79 W5        30.29S
BROKEN BOW     CLEAR     38  32  79 CALM      30.31F
6HR MIN TEMP:  32; 6HR MAX TEMP:  43;

O`NEILL        CLEAR     46  34  64 W12       30.26S
ORD            CLEAR     36  32  85 CALM      30.29S
6HR MIN TEMP:  35; 6HR MAX TEMP:  39; 6HR PCP: TRACE;

THEDFORD       CLEAR     40  33  75 W3        30.32F
$$

NEZ041-046>049-061>064-073>077-083>087-261300-
SOUTH CENTRAL NEBRASKA

CITY           SKY/WX    TMP DP  RH WIND       PRES   REMARKS
GRAND ISLAND   CLEAR     42  34  73 W9        30.31S
6HR MIN TEMP:  41; 6HR MAX TEMP:  45;

AURORA         CLEAR     41  38  89 W5        30.30R
HASTINGS       CLEAR     43  34  70 W6        30.32S
6HR MIN TEMP:  42; 6HR MAX TEMP:  47;

HEBRON         CLEAR     42  37  84 W5        30.31R
HOLDREGE       CLEAR     41  32  70 W6        30.33F
KEARNEY *      CLEAR     41  30  65 CALM      30.32S
YORK           CLEAR     41  37  87 W8        30.29R
$$

NEZ011>018-030>034-042>045-261300-
NORTHEAST NEBRASKA

CITY           SKY/WX    TMP DP  RH WIND       PRES   REMARKS
NORFOLK        CLEAR     41  34  76 W7        30.24S
6HR MIN TEMP:  41; 6HR MAX TEMP:  49;

ALBION         CLEAR     44  34  69 N5        30.27S
BLAIR          PTCLDY    47  39  73 W9        30.23S
FREMONT        CLEAR     43  40  89 NW3       30.25R
TEKAMAH        PTCLDY    46  37  71 W6        30.22R
6HR MIN TEMP:  46; 6HR MAX TEMP:  53;

WAYNE          CLEAR     42  37  81 SW3       30.23S
$$

NEZ050>053-065>068-078-088>093-261300-
SOUTHEAST NEBRASKA

CITY           SKY/WX    TMP DP  RH WIND       PRES   REMARKS
LINCOLN        CLEAR     47  37  68 CALM      30.28R
6HR MIN TEMP:  42; 6HR MAX TEMP:  49;

OMAHA EPPLEY   PTCLDY    50  38  63 CALM      30.24R
6HR MIN TEMP:  49; 6HR MAX TEMP:  54;

BEATRICE       CLEAR     42  39  88 CALM      30.28S
FALLS CITY     CLEAR     46  41  82 W6        30.25S
6HR MIN TEMP:  45; 6HR MAX TEMP:  52;

NEBRASKA CITY  CLEAR     47  32  55 W9        30.25R
PLATTSMOUTH    CLEAR     47  36  63 W6        30.24R
$$

NEZ044-045-051>053-067-261300-
OMAHA AREA

CITY           SKY/WX    TMP DP  RH WIND       PRES   REMARKS
OMAHA EPPLEY   PTCLDY    50  38  63 CALM      30.24R
6HR MIN TEMP:  49; 6HR MAX TEMP:  54;

BLAIR          PTCLDY    47  39  73 W9        30.23S
FREMONT        CLEAR     43  40  89 NW3       30.25R
MILLARD        PTCLDY    48  40  73 NW3       30.25R
OFFUTT AFB     PTCLDY    44  40  86 W5        30.23R
PLATTSMOUTH    CLEAR     47  36  63 W6        30.24R
WAHOO          FAIR      47  39  74 CALM      30.25R
$$




USA.gov is the U.S. government's official web portal to all federal, state and local government web resources and services.